| time (UTC) | temp F | wind direction | speed MPH | gust MPH | rain 1hr in | rain 24hr in | rain mn in | humidity % | barometer mb |
| 20260507193033 | 56 | 340 | 9.0 | 16.0 | 0.00 | 0.00 | 0.00 | 30 | 1012.3 |
| 20260507191532 | 58 | 302 | 8.0 | 13.0 | 0.00 | 0.00 | 0.00 | 31 | 1012.2 |
| 20260507190030 | 56 | 338 | 5.0 | 10.0 | 0.00 | 0.00 | 0.00 | 32 | 1012.2 |
| 20260507184528 | 56 | 341 | 8.0 | 14.0 | 0.00 | 0.00 | 0.00 | 31 | 1012.1 |
| 20260507183026 | 55 | 346 | 6.0 | 10.0 | 0.00 | 0.00 | 0.00 | 34 | 1012.4 |
| 20260507181523 | 54 | 350 | 5.0 | 12.0 | 0.00 | 0.00 | 0.00 | 33 | 1012.5 |
| 20260507180022 | 54 | 314 | 6.0 | 14.0 | 0.00 | 0.00 | 0.00 | 33 | 1012.5 |
| 20260507174519 | 54 | 26 | 3.0 | 6.0 | 0.00 | 0.00 | 0.00 | 36 | 1012.6 |
| 20260507173030 | 54 | 323 | 4.0 | 12.0 | 0.00 | 0.00 | 0.00 | 35 | 1012.8 |
| 20260507171516 | 54 | 332 | 5.0 | 10.0 | 0.00 | 0.00 | 0.00 | 38 | 1012.9 |
| 20260507170014 | 53 | 226 | 6.0 | 10.0 | 0.00 | 0.00 | 0.00 | 39 | 1012.9 |
| 20260507164512 | 52 | 341 | 2.0 | 10.0 | 0.00 | 0.00 | 0.00 | 41 | 1013.1 |
| 20260507163010 | 52 | 26 | 2.0 | 10.0 | 0.00 | 0.00 | 0.00 | 43 | 1013.2 |
| 20260507161519 | 51 | 251 | 2.0 | 9.0 | 0.00 | 0.00 | 0.00 | 43 | 1013.1 |
| 20260507160006 | 51 | 1 | 3.0 | 10.0 | 0.00 | 0.00 | 0.00 | 46 | 1013.2 |
| 20260507154506 | 51 | 337 | 3.0 | 9.0 | 0.00 | 0.00 | 0.00 | 47 | 1013.2 |
| 20260507153003 | 50 | 332 | 5.0 | 11.0 | 0.00 | 0.00 | 0.00 | 47 | 1013.3 |
| 20260507151502 | 50 | 350 | 3.0 | 10.0 | 0.00 | 0.00 | 0.00 | 47 | 1013.4 |
| 20260507150001 | 49 | 349 | 3.0 | 7.0 | 0.00 | 0.00 | 0.00 | 50 | 1013.3 |
| 20260507144617 | 50 | 333 | 4.0 | 8.0 | 0.00 | 0.00 | 0.00 | 47 | 1013.4 |
| 20260507143058 | 49 | 37 | 2.0 | 6.0 | 0.00 | 0.00 | 0.00 | 51 | 1013.5 |
| 20260507141615 | 48 | 18 | 2.0 | 11.0 | 0.00 | 0.00 | 0.00 | 52 | 1013.6 |
| 20260507140051 | 48 | 9 | 4.0 | 8.0 | 0.00 | 0.00 | 0.00 | 52 | 1013.6 |
| 20260507134550 | 48 | 47 | 3.0 | 7.0 | 0.00 | 0.00 | 0.00 | 51 | 1013.6 |
| 20260507133048 | 47 | 65 | 2.0 | 5.0 | 0.00 | 0.00 | 0.00 | 52 | 1013.7 |
| 20260507131545 | 46 | 31 | 4.0 | 8.0 | 0.00 | 0.00 | 0.00 | 54 | 1014.1 |
| 20260507130039 | 44 | 51 | 3.0 | 6.0 | 0.00 | 0.00 | 0.00 | 59 | 1014.1 |
| 20260507124535 | 41 | 60 | 4.0 | 8.0 | 0.00 | 0.00 | 0.00 | 64 | 1014.3 |
| 20260507123031 | 38 | 35 | 4.0 | 6.0 | 0.00 | 0.00 | 0.00 | 67 | 1014.3 |
| 20260507121531 | 38 | 31 | 2.0 | 5.0 | 0.00 | 0.00 | 0.00 | 67 | 1014.4 |
| 20260507120029 | 37 | 13 | 0.0 | 4.0 | 0.00 | 0.00 | 0.00 | 69 | 1014.7 |
| 20260507114529 | 36 | 10 | 2.0 | 5.0 | 0.00 | 0.00 | 0.00 | 69 | 1014.4 |
| 20260507113028 | 36 | 36 | 4.0 | 6.0 | 0.00 | 0.00 | 0.00 | 68 | 1013.8 |
| 20260507111539 | 38 | 43 | 3.0 | 4.0 | 0.00 | 0.00 | 0.00 | 67 | 1013.8 |
| 20260507110026 | 38 | 68 | 1.0 | 4.0 | 0.00 | 0.00 | 0.00 | 66 | 1013.6 |
| 20260507104524 | 37 | 44 | 3.0 | 5.0 | 0.00 | 0.00 | 0.00 | 67 | 1014.0 |
| 20260507103023 | 37 | 52 | 2.0 | 4.0 | 0.00 | 0.00 | 0.00 | 67 | 1013.9 |
| 20260507101522 | 37 | 43 | 3.0 | 5.0 | 0.00 | 0.00 | 0.00 | 67 | 1014.1 |
| 20260507100020 | 36 | 44 | 3.0 | 5.0 | 0.00 | 0.00 | 0.00 | 69 | 1014.2 |
| 20260507094518 | 37 | 58 | 1.0 | 3.0 | 0.00 | 0.00 | 0.00 | 66 | 1014.3 |
| 20260507093021 | 37 | 144 | 2.0 | 3.0 | 0.00 | 0.00 | 0.00 | 66 | 1014.1 |
| 20260507091525 | 38 | 148 | 2.0 | 3.0 | 0.00 | 0.00 | 0.00 | 66 | 1014.1 |
| 20260507090018 | 38 | 148 | 1.0 | 3.0 | 0.00 | 0.00 | 0.00 | 66 | 1014.4 |
| 20260507084522 | 38 | 148 | 0.0 | 3.0 | 0.00 | 0.00 | 0.00 | 69 | 1014.6 |
| 20260507083012 | 38 | 148 | 0.0 | 2.0 | 0.00 | 0.00 | 0.00 | 73 | 1014.7 |
| 20260507081519 | 38 | 143 | 0.0 | 2.0 | 0.00 | 0.00 | 0.00 | 66 | 1014.9 |
| 20260507080007 | 38 | 103 | 1.0 | 3.0 | 0.00 | 0.00 | 0.00 | 67 | 1015.0 |
| 20260507074505 | 38 | 96 | 0.0 | 3.0 | 0.00 | 0.00 | 0.00 | 67 | 1015.4 |
| 20260507073007 | 38 | 84 | 2.0 | 3.0 | 0.00 | 0.00 | 0.00 | 65 | 1015.5 |
| 20260507071503 | 38 | 77 | 0.0 | 0.0 | 0.00 | 0.00 | 0.00 | 65 | 1015.7 |
| 20260507070002 | 37 | 85 | 0.0 | 0.0 | 0.00 | 0.00 | 0.00 | 65 | 1015.7 |
| 20260507064501 | 37 | 97 | 0.0 | 0.0 | 0.00 | 0.00 | 0.00 | 65 | 1015.7 |
| 20260507063101 | 38 | 98 | 1.0 | 3.0 | 0.00 | 0.00 | 0.00 | 64 | 1015.6 |
| 20260507061604 | 38 | 97 | 1.0 | 3.0 | 0.00 | 0.00 | 0.00 | 64 | 1015.7 |
| 20260507054604 | 38 | 97 | 0.0 | 0.0 | 0.00 | 0.00 | 0.00 | 62 | 1015.7 |
| 20260507053100 | 38 | 97 | 0.0 | 0.0 | 0.00 | 0.00 | 0.00 | 63 | 1015.8 |
| 20260507051555 | 38 | 97 | 0.0 | 2.0 | 0.00 | 0.00 | 0.00 | 63 | 1015.8 |
| 20260507050051 | 37 | 97 | 1.0 | 3.0 | 0.00 | 0.00 | 0.00 | 62 | 1015.8 |
| 20260507044559 | 38 | 97 | 0.0 | 2.0 | 0.00 | 0.00 | 0.00 | 61 | 1015.9 |
| 20260507043151 | 38 | 97 | 2.0 | 3.0 | 0.00 | 0.00 | 0.00 | 59 | 1016.0 |
| 20260507041551 | 38 | 94 | 2.0 | 3.0 | 0.00 | 0.00 | 0.00 | 59 | 1016.0 |
| 20260507040049 | 39 | 94 | 0.0 | 3.0 | 0.00 | 0.00 | 0.00 | 60 | 1016.0 |
| 20260507034553 | 41 | 94 | 2.0 | 4.0 | 0.00 | 0.00 | 0.00 | 57 | 1016.0 |
| 20260507033048 | 42 | 94 | 1.0 | 4.0 | 0.00 | 0.00 | 0.00 | 56 | 1016.2 |
| 20260507031548 | 41 | 51 | 1.0 | 4.0 | 0.00 | 0.00 | 0.00 | 55 | 1016.4 |
| 20260507030053 | 42 | 43 | 3.0 | 5.0 | 0.00 | 0.00 | 0.00 | 53 | 1016.6 |
| 20260507024553 | 42 | 38 | 3.0 | 5.0 | 0.00 | 0.00 | 0.00 | 53 | 1016.7 |
| 20260507023046 | 42 | 34 | 3.0 | 5.0 | 0.00 | 0.00 | 0.00 | 53 | 1016.7 |
| 20260507021545 | 43 | 13 | 2.0 | 4.0 | 0.00 | 0.00 | 0.00 | 53 | 1016.6 |
| 20260507020050 | 43 | 1 | 2.0 | 4.0 | 0.00 | 0.00 | 0.00 | 52 | 1016.4 |
| 20260507014545 | 43 | 342 | 1.0 | 3.0 | 0.00 | 0.00 | 0.00 | 52 | 1016.4 |
| 20260507013056 | 44 | 342 | 2.0 | 4.0 | 0.00 | 0.00 | 0.00 | 50 | 1016.3 |
| 20260507011545 | 45 | 342 | 2.0 | 4.0 | 0.00 | 0.00 | 0.00 | 49 | 1016.4 |
| 20260507010045 | 46 | 340 | 2.0 | 6.0 | 0.00 | 0.00 | 0.00 | 48 | 1016.3 |
| 20260507004542 | 47 | 336 | 6.0 | 8.0 | 0.00 | 0.00 | 0.00 | 48 | 1016.4 |
| 20260507003044 | 47 | 340 | 3.0 | 10.0 | 0.00 | 0.00 | 0.00 | 48 | 1016.5 |
| 20260507001543 | 48 | 319 | 6.0 | 11.0 | 0.00 | 0.00 | 0.00 | 47 | 1016.3 |
| 20260507000046 | 48 | 326 | 8.0 | 12.0 | 0.00 | 0.00 | 0.00 | 46 | 1016.4 |
| 20260506234542 | 48 | 333 | 8.0 | 13.0 | 0.00 | 0.00 | 0.00 | 46 | 1016.5 |
| 20260506233040 | 48 | 303 | 7.0 | 12.0 | 0.00 | 0.00 | 0.00 | 47 | 1016.6 |
| 20260506231544 | 48 | 292 | 5.0 | 12.0 | 0.00 | 0.00 | 0.00 | 47 | 1016.6 |
| 20260506230038 | 48 | 290 | 8.0 | 15.0 | 0.00 | 0.00 | 0.00 | 46 | 1016.7 |
| 20260506224547 | 48 | 323 | 10.0 | 16.0 | 0.00 | 0.00 | 0.00 | 46 | 1016.6 |
| 20260506223038 | 48 | 323 | 7.0 | 10.0 | 0.00 | 0.00 | 0.00 | 47 | 1016.8 |
| 20260506221537 | 47 | 333 | 7.0 | 12.0 | 0.00 | 0.00 | 0.00 | 47 | 1016.9 |
| 20260506220038 | 48 | 335 | 8.0 | 14.0 | 0.00 | 0.00 | 0.00 | 47 | 1017.1 |
| 20260506214535 | 47 | 297 | 9.0 | 12.0 | 0.00 | 0.00 | 0.00 | 47 | 1017.1 |
| 20260506213037 | 47 | 335 | 9.0 | 12.0 | 0.00 | 0.00 | 0.00 | 48 | 1017.2 |
| 20260506211534 | 48 | 318 | 8.0 | 13.0 | 0.00 | 0.00 | 0.00 | 48 | 1017.3 |
| 20260506210037 | 47 | 324 | 9.0 | 16.0 | 0.00 | 0.00 | 0.00 | 47 | 1017.6 |
| 20260506204530 | 47 | 298 | 10.0 | 17.0 | 0.00 | 0.00 | 0.00 | 48 | 1017.6 |
| 20260506203032 | 46 | 324 | 5.0 | 15.0 | 0.00 | 0.00 | 0.00 | 48 | 1017.8 |
| 20260506201528 | 45 | 300 | 6.0 | 14.0 | 0.00 | 0.00 | 0.00 | 49 | 1018.0 |
| 20260506200027 | 45 | 326 | 7.0 | 13.0 | 0.00 | 0.00 | 0.00 | 49 | 1018.1 |
| 20260506194525 | 44 | 309 | 6.0 | 14.0 | 0.00 | 0.00 | 0.00 | 51 | 1018.1 |